Whiteman AFB, MO

11:59 PM CST on December 12, 2019 (GMT -0600)
Whiteman Air Force Base

Weather History for KSZL - September, 2019

Change the Weather History Date:

Monday, September 16, 2019

  Actual Average Record
Temperature  
Mean Temperature 80 °F -  
Max Temperature 92 °F 77 °F 96 °F (1997)
Min Temperature 68 °F 57 °F 44 °F (2000)
Cooling Degree Days 14    
Growing Degree Days 30 (Base 50)    
Moisture  
Dew Point 72 °F    
Average Humidity 83    
Maximum Humidity 100    
Minimum Humidity 48    
Precipitation  
Precipitation 0.00 in - - ()
Sea Level Pressure  
Sea Level Pressure 30.02 in    
Wind  
Wind Speed 5 mph (South)    
Max Wind Speed 7 mph    
Max Gust Speed -    
Visibility 10 miles    
Events      
Averages and records for this station are not official NWS values.
T = Trace of Precipitation, MM = Missing Value Source: NWS Daily Summary

Daily Weather History Graph

Daily Weather History Graph

Search for Another Location

Airport or City:

Astronomy

Sep. 16, 2019 Rise Set
Actual Time 6:56 AM CDT 7:21 PM CDT
Civil Twilight 6:29 AM CDT 7:47 PM CDT
Nautical Twilight 5:58 AM CDT 8:19 PM CDT
Astronomical Twilight 5:26 AM CDT 8:50 PM CDT
Moon 8:57 PM CDT (9/16) 9:03 AM CDT (9/16)
Length of Visible Light 13h 18m
Length of Day
12h 24m
Waning Gibbous, 94% of the Moon is Illuminated
Sep 16
Waning Gibbous
Sep 21
Last Quarter
Sep 28
New
Oct 5
First Quarter
Oct 13
Full

Hourly Weather History & Observations

Time (CDT) Temp. Heat Index Dew Point Humidity Pressure Visibility Wind Dir Wind Speed Gust Speed Precip Events Conditions
12:56 AM 73.8 °F - 73.4 °F 99% 30.00 in 10.0 mi South 6.9 mph - N/A   Clear
1:56 AM 71.4 °F - 71.4 °F 100% 30.01 in 10.0 mi South 6.9 mph - N/A   Clear
2:56 AM 70.9 °F - 70.9 °F 100% 30.01 in 10.0 mi SSW 6.9 mph - N/A   Clear
3:56 AM 70.9 °F - 70.9 °F 100% 30.01 in 10.0 mi South 6.9 mph - N/A   Clear
4:56 AM 69.4 °F - 69.4 °F 100% 30.03 in 10.0 mi South 5.8 mph - N/A   Clear
5:56 AM 68.9 °F - 68.9 °F 100% 30.04 in 10.0 mi SSW 5.8 mph - N/A   Clear
6:56 AM 68.5 °F - 68.5 °F 100% 30.05 in 10.0 mi South 4.6 mph - N/A   Partly Cloudy
7:56 AM 70.9 °F - 70.9 °F 100% 30.07 in 10.0 mi South 3.5 mph - N/A   Partly Cloudy
8:56 AM 75.7 °F - 75.0 °F 98% 30.07 in 10.0 mi SSW 4.6 mph - N/A   Partly Cloudy
10:56 AM 85.8 °F 92.6 °F 73.0 °F 65% 30.06 in 10.0 mi WSW 3.5 mph - N/A   Partly Cloudy
11:56 AM 89.1 °F 94.1 °F 70.2 °F 53% 30.06 in 10.0 mi WSW 4.6 mph - N/A   Scattered Clouds
12:56 PM 90.5 °F 95.5 °F 69.8 °F 50% 30.04 in 10.0 mi WSW 5.8 mph - N/A   Scattered Clouds
1:56 PM 91.8 °F 97.0 °F 69.8 °F 48% 30.03 in 10.0 mi SSW 5.8 mph - N/A   Mostly Cloudy
2:56 PM 91.2 °F 96.0 °F 69.3 °F 48% 30.01 in 10.0 mi SSE 4.6 mph - N/A   Mostly Cloudy
3:56 PM 89.1 °F 96.0 °F 71.8 °F 57% 30.00 in 10.0 mi SE 3.5 mph - N/A   Mostly Cloudy
4:56 PM 89.1 °F 94.1 °F 70.2 °F 53% 29.99 in 10.0 mi SSE 4.6 mph - N/A   Mostly Cloudy
5:56 PM 87.3 °F 94.0 °F 72.5 °F 61% 29.99 in 10.0 mi SSE 3.5 mph - N/A   Mostly Cloudy
6:56 PM 83.5 °F 90.9 °F 74.7 °F 75% 29.98 in 10.0 mi SE 3.5 mph - N/A   Mostly Cloudy
7:56 PM 78.6 °F - 77.5 °F 96% 29.98 in 10.0 mi SE 3.5 mph - N/A   Scattered Clouds
8:56 PM 76.1 °F - 76.1 °F 100% 29.99 in 10.0 mi SE 3.5 mph - N/A   Scattered Clouds
9:56 PM 74.3 °F - 74.3 °F 100% 30.00 in 10.0 mi SE 3.5 mph - N/A   Scattered Clouds
11:09 PM 73.0 °F - 73.0 °F 100% 30.00 in 10.0 mi SSE 3.5 mph - N/A   Scattered Clouds
11:56 PM 72.3 °F - 72.3 °F 100% 30.00 in 10.0 mi SE 3.5 mph - N/A   Scattered Clouds